USA 40 R/B DEB, 23351

Orbit data source: Space-Track

USA 40 R/B DEB, 23351 is space debris in LEO originally from a launch on Tue, 08 Aug 1989 UTC launched from the Air Force Eastern Test Range (AFETR). Debris objects in space refer to the collection of defunct objects orbiting the Earth. Examples of debris include non-operational satellites, rocket bodies, and fragments generated from explosions, collisions, or faulty payload assembly.

Loading next visibility...
Identifier
23351, 1989-061X
Orbit
LEO
Country
Flag of USUS
Related business
Manufacturer
Unknown
Mission
Spacecraft
Bus & Motor
Unknown
Mass
Unknown
Launch date (UTC)
1989-08-08 (37 years ago)
Launch vehicle
Unknown
Launch site
Air Force Eastern Test Range (AFETR)
Object type
Payload
Rocket body
Debris
Shape & HBR
Unknown shape, 0.1 m
Radar Cross Section
Medium (>0.1 m² and <1 m²)

Expand to show TLE details & history
Last TLE update: 3 days ago

TLE from 3 days ago
0 USA 40 R/B DEB
1 23351U 89061X   26170.13362186  .00007832  00000-0  41687-2 0  9992
2 23351  56.9614 330.6756 2173457 238.1347  98.9780 10.51003346267700
Epoch: 2026-06-19T03:12Z
TLE epoch observation values (Epoch: 2026-06-19T03:12:24.928Z)
Latitude
0.00003°
Longitude
15.20478°
Altitude
3,100.698 km
Speed
6.233 km/s
True Right ascension
22h 02m 42s
True Declination
0° 00' 00"
Sunlit
Object was in daylight at epoch
Visualization orbit readout
Latitude
Unknown
Longitude
Unknown
Altitude
Unknown
Speed
Unknown
Apparent Right ascension
Unknown
Apparent Declination
Unknown
Sunlit
N/A
Visualization observer readout
Local Sidereal Time
00:51:14
Azimuth
Unknown
Elevation
Unknown
Doppler factor
Unknown
Orbital elements
Apogee altitude
4,338.675 km
Perigee altitude
511.902 km
Semi-major axis
8,803.425 km
Eccentricity
0.21735
Inclination
56.9614°
RAAN
330.6756°
Arg. of periapsis
238.1347°
True anomaly
121.9505°
Mean anomaly
98.978°
Eccentric anomaly
110.63227°
Mean motion
2.62764 °/min
Orbital period
137.01 mins
BSTAR
0.0041687
Loading maneuver chart data...
Computing Atmospheric mass density...
Loading historical data...
Loading historical data...
Loading historical data...
Loading historical data...
Loading historical data...
Loading historical data...
Loading historical data...

Documentation

Showing up to 5 results
|